RH
9 12 13 12 12 15 27 33 20 15 27 26 26 17 14 14 28 37 55 41 59 31 20 19 20 20 19 24 16 6 3 3 3 4 4 4 4 5 6 5 5 4 3 4 4 4 4 3 3
7 8 9 11 14 22 26 25 22 22 24 27 24 24 16 15 17 18 50 15 21 17 17 18 18 18 19 19 16 12 5 3 3 3 3 4 4 5 5 5 4 4 4 4 4 4 3 3 3
15 13 10 13 16 34 29 38 38 34 30 26 27 17 17 15 17 16 18 14 22 16 16 17 18 18 19 18 18 15 8 4 3 3 3 3 3 4 4 4 4 4 4 3 3 4 4 4 4
12 16 16 16 18 37 21 48 46 35 31 29 23 18 16 15 16 18 18 15 17 18 18 20 19 20 20 19 16 15 12 8 5 3 3 3 3 3 4 4 4 4 4 4 4 4 4 4 4
12 14 14 16 35 64 67 68 62 48 38 28 24 22 16 15 18 18 18 17 18 20 21 22 22 21 22 20 20 20 18 16 9 7 4 4 4 3 3 4 4 4 4 4 4 4 4 4 4
13 14 17 31 20 53 97 78 70 61 44 32 24 22 17 15 16 19 21 21 20 22 23 23 22 19 18 18 19 21 23 24 22 18 13 8 5 4 5 4 4 4 4 4 4 4 4 4 4
18 20 22 22 17 92 93 86 69 56 30 22 18 27 22 15 12 18 25 25 22 24 25 25 22 19 18 15 15 17 21 24 25 26 25 24 21 17 13 8 6 6 6 6 5 4 4 4 5
19 16 22 25 46 87 72 42 19 13 14 20 18 18 23 14 12 16 25 34 33 26 29 28 25 22 21 19 16 15 18 20 22 26 26 26 26 26 25 22 18 14 12 10 9 7 6 5 4
27 32 26 26 25 33 40 30 11 10 25 34 33 27 16 14 13 27 31 26 29 28 18 24 28 23 21 19 17 16 14 15 20 24 26 26 25 25 28 30 28 26 22 18 15 12 9 7 6
21 23 41 41 28 19 15 15 16 20 30 32 26 25 25 26 31 41 37 32 26 22 21 23 28 31 27 25 24 21 17 16 16 19 25 28 27 24 24 27 31 30 30 26 21 16 15 14 12
22 27 35 40 35 37 44 46 53 42 41 33 34 32 27 34 35 34 33 33 28 23 22 21 22 26 31 28 31 28 24 23 20 18 20 25 29 31 29 24 26 27 30 32 30 24 21 20 17
22 26 30 39 39 40 54 56 52 52 48 42 40 42 42 34 34 33 32 30 29 29 29 30 30 76 54 30 24 26 27 26 27 27 27 27 33 34 35 33 27 27 34 43 36 34 32 28 25
25 28 33 36 35 42 48 59 58 54 51 49 44 41 40 40 37 34 30 32 32 32 31 30 30 38 40 84 45 28 28 32 35 34 35 33 37 38 35 39 30 26 25 32 45 45 40 36 35
28 30 37 39 38 32 39 55 57 53 53 53 54 52 48 39 34 34 34 34 35 38 39 37 34 37 42 36 41 76 58 37 40 43 59 62 44 38 40 49 47 38 32 20 25 30 37 39 37
44 39 38 42 38 35 40 48 47 42 41 42 45 50 48 43 39 36 34 32 31 35 37 37 34 32 37 44 33 28 41 90 52 55 74 78 60 49 36 36 48 56 41 28 18 22 37 38 33
55 48 48 44 46 47 47 47 42 40 42 47 51 42 34 28 23 22 23 24 30 38 40 36 34 34 31 30 27 26 25 30 64 96 90 97 88 69 48 34 28 48 52 35 30 34 30 42 29
60 51 46 46 59 46 43 57 55 52 51 41 33 32 28 25 24 22 25 32 36 35 31 31 26 27 28 27 32 31 28 28 28 70 76 93 84 86 60 41 35 32 42 30 42 55 42 36 28
55 65 76 73 64 50 38 47 70 81 65 55 43 37 34 31 28 32 33 31 26 29 34 36 37 34 30 32 26 28 29 28 31 38 59 79 84 83 76 72 48 42 36 35 30 42 58 38 19
75 90 85 93 80 53 48 44 80 90 55 46 36 32 29 20 25 28 25 26 27 26 27 30 33 33 34 35 34 31 30 31 27 21 22 90 93 86 100 86 69 47 41 28 17 42 53 70 74
51 58 73 78 89 63 59 64 50 72 46 29 25 22 21 24 31 30 28 22 24 26 25 26 27 24 23 22 22 24 28 29 28 27 20 27 64 67 92 96 97 95 50 24 15 29 51 85 91
45 44 41 39 46 46 46 34 44 48 36 27 19 14 14 23 29 30 33 30 26 26 26 24 22 19 17 15 14 15 16 17 25 25 22 16 15 24 82 86 84 92 100 91 39 54 74 90 72
55 55 52 47 42 40 48 36 47 57 36 23 13 14 16 19 19 26 29 26 23 23 24 24 21 19 17 14 12 10 10 10 10 12 24 22 14 12 23 62 96 61 60 73 94 94 99 93 96
46 40 44 57 60 46 47 51 39 55 35 20 20 16 12 12 18 23 21 20 18 16 16 18 16 16 15 13 11 10 10 10 11 13 10 13 23 17 12 12 39 94 78 57 81 86 96 90 79
45 37 39 60 64 44 59 52 35 49 36 17 12 11 10 11 16 19 21 24 24 25 22 18 16 15 14 14 13 12 10 10 14 16 18 16 13 23 20 12 12 47 40 64 78 84 81 96 93
54 45 50 55 52 45 38 34 26 35 42 48 23 29 24 27 30 32 35 38 32 24 20 17 14 12 12 11 11 10 10 14 15 18 23 23 30 27 25 20 13 12 50 65 71 95 96 96 95
55 75 77 68 62 50 46 40 42 73 93 85 69 41 41 47 52 49 43 34 26 18 10 5 5 5 6 7 8 7 6 6 7 5 5 17 22 27 30 22 15 28 26 76 80 84 85 85 98
78 81 82 86 84 77 69 62 64 62 54 48 50 58 66 69 63 49 35 22 9 4 4 3 3 3 3 3 2 2 2 2 2 3 4 4 5 10 16 26 24 15 33 43 82 81 86 84 90
76 70 73 78 65 62 52 63 56 56 50 56 61 70 65 64 54 39 17 9 4 3 3 3 3 4 4 4 6 7 17 39 28 17 5 2 3 4 4 12 22 23 24 38 60 80 88 91 93
52 82 77 79 69 73 57 65 67 72 78 69 58 57 54 51 45 20 8 4 4 6 8 10 21 19 30 50 56 52 72 53 52 68 57 49 14 3 3 4 8 19 24 30 63 80 78 74 78
64 74 78 77 61 79 80 69 70 65 60 53 53 41 39 42 15 7 8 14 20 23 23 35 34 24 53 69 79 77 80 83 78 80 61 67 58 22 4 3 3 6 17 27 34 52 67 74 100
Wind_Speed
19 18 17 14 11 6 6 7 18 17 22 22 23 22 23 18 18 24 19 16 16 16 14 12 12 12 15 11 11 12 10 13 12 11 11 12 12 12 13 14 14 14 13 13 13 15 17 19 21
19 19 19 15 9 3 10 14 16 18 22 25 27 29 25 18 17 17 18 16 17 14 13 13 13 11 10 13 12 11 14 13 14 13 14 14 13 13 13 15 15 15 15 15 16 17 19 20 23
21 18 18 12 5 9 4 13 24 26 30 29 30 22 21 13 13 16 13 18 14 15 14 14 15 14 11 8 12 13 14 17 16 17 17 17 17 16 15 16 16 17 17 17 18 20 20 21 23
19 18 17 10 2 9 16 19 27 29 33 31 26 26 15 16 12 15 17 19 13 15 15 15 16 15 14 12 11 11 13 17 20 20 20 21 21 21 19 19 18 18 19 20 20 22 22 22 23
13 16 14 8 18 9 17 21 25 29 33 29 20 22 22 15 15 15 18 18 15 14 17 16 19 19 17 15 13 11 11 13 17 21 23 24 24 24 23 22 21 21 22 22 24 25 24 23 23
10 11 9 19 20 13 22 28 29 31 31 30 21 20 26 27 12 16 20 20 19 18 20 21 21 22 22 20 17 16 14 14 15 17 18 22 26 27 26 26 27 26 26 24 25 27 27 26 26
14 12 10 15 18 17 21 24 26 26 24 25 20 23 29 33 18 12 18 23 25 23 23 25 26 25 25 25 23 21 18 17 18 20 20 20 19 19 21 24 28 28 28 28 29 30 30 27 26
19 16 14 13 17 25 31 33 30 28 24 28 27 27 30 35 29 17 21 21 28 29 26 28 30 30 29 29 29 27 24 22 22 23 24 25 25 23 22 21 21 22 22 22 23 25 27 27 25
18 17 18 22 28 35 38 38 30 22 26 30 34 35 32 34 31 27 27 29 28 31 30 30 31 33 32 32 32 31 31 28 25 25 26 27 28 28 26 25 24 24 23 22 23 24 24 24 23
22 19 19 26 31 35 38 38 36 34 34 34 39 38 36 32 31 32 35 34 36 33 32 34 33 36 37 36 37 36 35 34 33 30 29 29 29 31 30 28 26 25 25 24 23 24 24 23 24
23 21 23 25 30 27 28 28 30 34 35 41 37 37 36 37 37 37 38 39 41 41 36 35 38 40 40 41 40 40 40 39 38 36 37 33 30 30 31 30 28 26 25 24 23 23 23 24 25
26 23 21 20 25 23 24 26 30 33 36 34 35 35 37 38 41 41 40 41 42 42 43 43 39 39 43 45 43 42 43 43 43 42 40 40 35 30 29 30 30 28 25 23 24 23 23 23 26
28 27 22 21 23 25 26 26 31 35 36 33 33 34 34 37 39 41 42 42 43 43 43 44 39 37 41 42 41 44 45 46 46 46 46 43 42 35 29 29 32 31 28 26 27 26 26 26 26
30 29 29 27 26 28 23 23 27 32 30 33 38 38 41 41 42 41 41 42 43 44 44 44 46 46 44 42 45 44 44 49 49 49 49 48 46 41 33 30 29 31 30 29 28 29 30 27 28
27 30 31 30 30 30 25 31 34 36 39 36 34 36 41 43 43 42 39 37 38 37 35 35 36 40 41 40 43 46 46 46 51 52 51 50 50 47 38 34 32 29 32 31 29 28 29 29 29
26 27 30 33 32 32 29 31 29 32 34 33 33 36 39 38 37 36 36 34 35 37 40 43 43 43 42 40 39 42 44 47 48 54 54 52 53 50 45 37 36 32 33 35 31 29 29 31 30
28 29 31 34 36 34 30 25 28 34 36 37 37 36 37 37 38 37 38 39 39 41 42 43 45 45 44 47 44 44 46 48 49 54 56 63 52 54 51 40 39 38 35 38 34 32 34 35 34
31 30 28 35 41 40 40 32 24 33 40 43 43 41 37 37 38 38 40 42 41 41 43 45 45 48 48 47 50 49 49 52 54 52 55 52 67 49 53 53 43 41 41 42 41 39 39 40 36
27 28 30 33 36 42 42 40 36 38 39 42 43 43 43 44 35 36 38 40 42 44 44 44 44 45 46 51 52 54 54 54 55 57 49 42 37 46 54 55 53 47 44 46 45 46 41 40 40
28 30 31 36 38 40 38 38 42 42 45 46 45 47 48 48 42 42 42 48 47 47 49 49 48 46 45 47 46 49 53 56 60 60 56 53 54 52 56 62 64 51 45 49 50 51 47 47 45
27 29 30 32 34 36 39 40 44 47 49 49 49 51 54 54 45 40 40 44 48 49 50 53 55 55 53 52 51 51 53 55 56 61 61 60 57 54 58 61 60 60 55 55 55 53 50 50 47
33 36 39 40 42 43 45 49 44 45 50 53 53 54 54 54 50 51 51 53 55 56 56 54 56 57 58 61 63 62 61 59 62 62 62 63 62 59 60 61 60 60 59 58 58 63 51 54 59
42 39 39 44 46 48 46 43 47 42 49 53 52 54 55 56 59 58 58 60 62 64 64 63 62 60 59 63 64 64 61 62 62 61 65 63 65 64 61 62 63 61 56 57 61 58 65 59 59
38 40 42 46 47 49 40 45 47 46 47 52 55 56 59 61 61 61 60 62 62 61 61 62 64 67 70 67 65 66 65 64 63 65 68 67 64 66 65 65 64 65 60 59 58 60 64 60 61
38 39 44 47 50 47 46 44 49 48 46 44 51 54 57 60 60 59 61 64 67 67 66 66 65 65 66 68 71 71 69 66 64 65 68 72 74 72 69 66 65 63 62 60 60 60 62 61 64
39 43 44 46 43 41 40 44 45 36 36 41 47 56 57 58 61 62 64 66 66 66 64 64 67 69 71 73 75 77 77 76 74 71 66 67 71 72 73 69 67 64 63 60 61 59 61 63 62
38 36 40 42 42 44 42 43 45 47 51 52 53 51 52 57 61 63 65 64 64 66 68 70 72 74 77 80 81 82 81 81 82 80 77 70 68 67 68 69 70 68 65 62 63 64 64 63 63
42 46 47 47 48 49 45 45 46 46 51 50 49 52 55 58 61 63 61 62 64 67 70 70 67 62 59 58 57 54 48 46 52 59 72 76 73 69 66 66 68 70 68 66 63 62 63 62 64
45 46 45 46 46 46 47 47 48 48 46 48 51 56 58 59 61 61 59 60 61 58 55 52 48 45 43 42 46 40 39 36 41 42 44 45 57 65 68 64 64 67 68 67 64 65 65 67 67
48 45 46 45 46 48 48 48 49 49 49 51 52 54 51 49 51 51 51 49 48 48 46 47 49 44 42 43 42 39 39 38 43 42 46 43 45 48 63 66 64 61 64 68 66 67 68 65 53
Wind_Direction
273 275 280 287 296 330 148 211 241 277 264 272 276 283 277 262 251 257 282 284 287 291 305 316 328 339 325 333 320 283 273 262 261 259 261 268 273 280 286 294 300 306 312 315 321 328 331 335 338
274 274 275 281 295 196 216 237 270 270 272 271 277 291 277 287 289 275 254 272 272 290 302 310 316 322 326 315 309 297 277 266 261 267 268 268 273 283 289 295 299 303 309 312 318 323 326 332 333
272 271 272 274 289 156 203 235 265 266 271 281 291 279 275 279 260 272 264 279 276 293 299 309 309 313 312 304 313 299 284 278 272 270 270 273 275 279 286 290 294 300 302 308 315 319 322 325 328
264 259 262 272 186 196 246 279 273 266 262 269 278 277 281 271 256 258 265 273 284 291 291 297 297 302 302 292 286 302 297 286 281 278 272 269 272 281 285 284 286 290 295 300 306 312 316 318 320
270 262 259 181 160 180 251 259 274 273 275 270 274 288 282 260 257 262 264 276 285 282 287 290 292 294 294 288 286 285 290 293 285 281 278 277 276 279 281 282 284 286 287 292 297 302 307 310 313
256 244 219 178 195 208 247 251 253 258 266 272 281 285 282 277 255 270 274 281 283 281 281 284 285 289 292 290 285 282 287 291 293 288 282 280 279 279 282 284 286 286 285 286 289 293 299 304 308
252 238 230 216 245 220 240 255 254 255 267 274 273 275 276 278 280 265 276 279 282 280 282 284 286 289 293 292 290 287 286 285 289 292 290 287 284 283 286 287 286 288 291 293 292 293 296 299 303
266 256 242 222 216 228 237 247 259 264 263 271 270 265 263 272 277 257 252 268 282 282 280 282 285 288 289 290 291 291 289 287 286 288 290 291 289 287 286 285 284 282 283 286 290 292 295 297 300
271 265 250 237 227 228 240 251 269 282 270 272 272 264 255 262 276 283 270 263 258 268 275 274 277 283 285 285 286 287 289 290 285 283 282 284 286 286 285 285 286 286 286 287 289 291 293 296 299
267 267 259 252 256 248 257 263 271 277 274 271 268 271 274 272 276 279 278 275 273 263 264 273 274 276 279 278 279 280 282 284 286 285 280 280 280 281 282 282 283 286 287 286 285 287 291 296 297
256 263 262 258 264 268 271 274 279 275 277 269 273 275 274 271 270 267 266 271 273 275 272 268 273 275 271 273 273 276 278 281 282 282 285 281 279 279 279 279 279 279 280 282 282 284 289 295 297
262 263 258 258 270 273 262 258 268 274 271 277 279 278 274 273 269 272 272 271 273 276 278 281 280 277 273 274 272 272 276 279 281 280 278 280 280 277 277 278 278 276 275 277 276 278 283 287 291
265 257 254 266 269 271 272 271 260 259 267 274 274 273 273 271 271 271 272 275 277 278 280 282 284 287 288 282 278 279 277 275 274 278 279 277 279 278 275 274 274 275 275 272 273 276 280 282 286
265 264 262 265 269 271 276 269 266 270 275 276 273 276 272 271 272 275 277 279 280 281 282 283 282 283 284 283 282 277 272 274 272 271 270 274 276 277 274 274 270 271 271 271 271 275 277 277 283
267 267 267 264 271 273 272 270 275 276 275 278 277 272 272 273 275 279 281 286 290 292 291 286 285 281 277 271 276 277 275 272 268 265 262 265 270 275 274 271 271 269 271 269 272 272 274 275 284
267 268 263 267 277 282 277 276 280 283 281 279 275 269 273 280 287 289 289 289 291 285 281 279 278 278 280 277 269 271 272 269 270 267 258 254 263 267 271 268 267 268 268 270 272 266 267 269 276
274 270 268 277 282 281 286 282 282 287 285 277 272 274 278 282 286 289 287 283 277 273 273 274 276 276 277 278 271 269 269 268 264 261 267 265 254 259 267 264 263 265 264 264 263 265 268 269 273
271 280 273 273 279 286 290 290 274 279 277 277 282 285 284 281 282 285 283 278 277 278 275 274 273 274 274 272 274 272 269 266 265 265 262 262 263 252 259 264 259 258 258 262 261 260 264 270 274
274 265 270 275 278 284 288 297 297 279 274 276 287 293 290 294 291 285 287 290 290 289 288 284 279 277 273 275 274 273 272 267 266 266 262 253 247 256 253 260 262 258 256 257 261 262 262 266 272
280 277 275 273 274 281 285 286 285 284 284 288 289 289 287 289 293 295 292 289 289 289 288 286 284 281 278 277 273 272 273 274 273 269 265 258 259 259 256 256 257 258 259 261 258 258 262 264 255
276 280 286 286 281 280 275 280 283 284 283 283 283 284 285 288 299 297 289 288 289 286 284 284 284 284 284 284 282 280 276 275 273 272 269 267 265 257 254 256 252 257 258 256 257 256 258 263 269
273 283 290 279 274 274 278 279 284 280 285 283 284 284 290 292 291 292 292 293 289 288 288 288 288 287 286 285 284 283 280 279 276 274 271 267 263 259 259 254 255 251 253 252 255 255 255 262 267
282 284 282 281 280 275 283 286 287 282 283 286 288 290 292 289 290 293 296 293 291 291 291 290 290 289 286 287 286 284 279 279 276 268 272 266 262 259 255 255 252 252 250 253 251 258 259 256 258
287 288 285 280 279 279 285 284 283 278 289 290 288 288 288 291 295 299 298 296 297 294 293 292 290 289 289 286 283 281 279 276 270 263 257 257 255 253 252 250 250 252 247 246 248 250 252 255 257
284 288 283 281 280 282 283 285 289 292 291 292 293 294 297 300 299 296 296 296 296 297 296 292 289 286 284 283 282 279 275 270 267 265 258 251 249 247 246 246 247 249 250 245 245 246 247 249 250
284 277 278 278 284 289 289 286 286 275 260 268 279 290 293 293 293 294 296 296 296 294 292 292 291 290 288 284 281 279 276 272 267 263 259 255 253 250 249 243 242 243 245 247 245 243 245 248 252
280 281 278 278 281 283 285 281 278 277 275 278 283 282 281 285 289 293 294 296 296 296 296 296 295 293 291 287 284 280 276 272 267 263 261 253 252 249 247 246 243 240 241 241 243 244 247 250 253
275 277 278 282 283 282 287 285 281 279 283 291 290 285 286 286 290 293 296 296 296 298 299 298 298 298 295 289 287 285 279 275 265 264 259 255 249 245 245 243 241 240 239 240 241 246 250 249 253
274 277 281 281 283 286 287 281 282 283 284 288 288 289 290 293 292 293 295 301 304 305 304 303 303 306 300 301 291 288 287 276 278 272 265 263 251 242 240 239 240 239 240 241 240 243 248 252 254
275 281 281 280 284 282 282 283 285 287 287 286 283 284 290 289 291 301 306 309 311 312 309 309 302 301 300 306 299 294 288 287 278 274 268 264 250 244 231 236 236 237 238 239 241 243 247 253 251